Regional Weather Roundup
Issued by NWS Albany, NY

Home | Current Version | Previous Version | Text Only | Print | Product List | Glossary On
Versions: 1 2 3 4 5 6 7 8 9 10 11 12 13 14 15 16 17 18 19 20 21 22 23 24 25 26 27 28 29 30 31 32 33 34 35 36 37 38 39 40 41 42 43 44 45 46 47 48 49 50
000
ASUS41 KALY 292010
RWRALY

NEW YORK STATE HOURLY WEATHER ROUNDUP
NATIONAL WEATHER SERVICE ALBANY NY
400 PM EDT TUE JUL 29 2014

NOTE: "FAIR" INDICATES FEW OR NO CLOUDS BELOW 12,000 FEET WITH NO
SIGNIFICANT WEATHER AND/OR NO OBSTRUCTIONS TO VISIBILITY.

NYZ032-033-038>043-046>054-057>066-NYZ062>081-292100-
EAST


CITY           SKY/WX    TMP DP  RH WIND       PRES   REMARKS
ALBANY         MOSUNNY   74  51  44 W8        29.87S
GLENS FALLS    PTSUNNY   72  53  51 N6        29.86R
POUGHKEEPSIE   CLOUDY    73  51  46 W6        29.87R
NEWBURGH       PTSUNNY   73  52  46 W7        29.90R
MONTGOMERY     PTSUNNY   72  50  45 NW8       29.89R
WHITE PLAINS   MOSUNNY   72  51  47 NW12      29.89R
ISLIP          PTSUNNY   78  50  37 NW6       29.87R
NEW YORK CITY  PTSUNNY   75  49  39 N9        29.88R
CENTRAL PARK   MOSUNNY   76  50  40 VRB5      29.91R
$$

NYZ005>009-017-018-044>046-055-056-292100-
CENTRAL


CITY           SKY/WX    TMP DP  RH WIND       PRES   REMARKS
FULTON         SUNNY     70  51  51 NW9       29.93S
SYRACUSE       CLOUDY    69  50  50 N12       29.92R
ROME           MOSUNNY   70  51  51 NW12      29.91R
ELMIRA         CLOUDY    68  50  52 W6        29.94S
BINGHAMTON     CLOUDY    63  48  58 W9        29.95R
MONTICELLO     CLOUDY    64  52  63 W5        29.94R
$$

NYZ026>034-041>043-292100-
NORTH


CITY           SKY/WX    TMP DP  RH WIND       PRES   REMARKS
WATERTOWN      MOSUNNY   70  53  54 SW10      29.91S
FORT DRUM      NOT AVBL
MASSENA        PTSUNNY   70  52  52 W7        29.89R
SARANAC LAKE   PTSUNNY   63  49  60 NW7       29.89S
PLATTSBURGH    PTSUNNY   70  50  49 W6        29.86R
$$

NYZ001>004-010>016-019>021-292100-
WEST


CITY           SKY/WX    TMP DP  RH WIND       PRES   REMARKS
NIAGARA FALLS  PTSUNNY   67  51  56 SW13      29.94R
BUFFALO        PTSUNNY   68  50  52 SW16      29.95R
DUNKIRK        SUNNY     67  47  48 W13G23    29.97S
JAMESTOWN      MOSUNNY   63  48  59 NW12G18   29.99S
WELLSVILLE     CLOUDY    62  49  62 NW3       30.00R
ROCHESTER      PTSUNNY   68  49  50 VRB6      29.94S
PENN YAN       CLOUDY    66  51  58 NW9       29.95S
$$

             KEY
       WCI = WIND CHILL INDEX
       VSB = VISIBILITY
       HX  = HEAT INDEX
$$



USA.gov is the U.S. government's official web portal to all federal, state and local government web resources and services.